Helicity
35 33 27 0 -27 25 71 153 197 90 161 215 314 211 266 100 123 75 35 26 13 -20 8 86 81 96 87 57 110 107 168 117 68 -18 65 56 197 123 119 105 62 66 103 12
-51 -53 -53 -51 -46 51 141 169 207 -8 180 266 182 208 39 -17 1 9 56 56 -7 -43 162 32 37 124 68 43 130 156 187 235 176 64 62 43 176 160 105 126 121 95 98 -15
-37 -35 -31 -32 -42 54 144 192 242 311 198 343 160 125 32 2 44 2 2 -40 113 -8 138 85 -50 199 71 128 99 174 240 250 101 157 124 42 149 132 90 119 140 51 49 71
-23 -25 -24 -31 55 58 145 242 306 405 312 331 210 174 187 43 0 52 36 -71 98 149 53 22 -54 10 34 139 146 134 218 151 182 50 8 72 64 79 34 74 85 126 13 -1
31 58 59 63 77 72 165 331 401 369 404 298 221 166 141 39 37 58 29 13 39 121 61 20 3 -16 15 217 190 208 329 132 224 185 50 99 64 41 61 49 38 67 121 80
54 56 60 71 80 80 181 238 276 342 280 354 224 125 108 126 34 -4 7 -1 -38 71 170 153 -121 -60 61 200 97 190 299 305 181 154 129 68 61 59 51 56 29 86 63 49
55 62 51 49 52 79 180 261 292 368 361 215 272 206 105 93 72 17 -28 13 44 90 22 91 68 -18 144 153 91 148 243 272 291 177 127 161 74 68 84 49 15 45 93 103
56 59 66 87 68 87 194 225 372 350 282 326 145 138 176 62 65 -8 4 -40 8 27 86 59 5 -162 -46 181 117 171 277 202 341 203 212 249 228 115 115 65 34 48 55 80
77 85 105 114 108 99 211 171 193 331 253 212 194 95 100 127 93 47 -32 -25 25 19 109 85 -50 -110 -14 175 161 100 93 105 134 242 225 146 20 92 113 86 71 114 75 81
84 85 73 88 92 101 218 190 160 170 348 243 195 170 66 25 71 80 57 -2 27 51 157 67 41 72 -74 35 64 70 162 129 143 115 179 200 67 51 94 121 93 61 59 48
102 96 97 92 83 80 156 159 189 144 298 267 175 198 157 104 34 55 49 35 39 113 169 103 53 -12 14 44 76 109 144 125 46 28 73 54 107 124 130 67 68 49 63 29
62 102 103 93 96 73 85 170 156 132 184 309 225 184 53 26 67 47 23 60 57 76 143 132 81 82 88 118 50 83 151 121 85 64 80 107 137 23 84 252 97 77 65 88
27 42 72 101 97 85 68 136 155 157 148 291 230 152 97 59 45 77 6 20 60 23 31 135 126 82 221 110 93 67 68 93 75 154 70 56 143 81 109 136 126 97 61 61
43 47 52 62 113 78 81 220 181 169 199 224 173 170 97 74 66 88 65 17 74 107 116 28 161 81 100 111 127 82 62 79 43 63 44 18 33 72 51 92 159 112 76 99
27 16 26 53 90 99 149 216 165 189 226 176 197 168 118 8 17 58 76 73 84 100 131 -20 43 100 134 69 79 79 74 50 86 32 20 63 28 32 2 38 61 34 60 52
12 15 24 63 91 138 239 191 104 163 186 229 252 184 146 135 60 50 55 49 54 65 18 43 -93 46 72 130 108 69 19 43 36 17 73 50 94 117 111 134 143 176 155 154
21 38 54 129 130 172 207 121 233 157 136 268 253 175 195 156 96 102 99 102 85 85 20 -82 14 39 62 42 54 117 135 128 97 43 50 151 127 106 116 108 123 169 242 262
54 73 61 124 149 189 179 116 243 163 269 280 170 147 200 267 118 112 97 87 107 105 14 -62 -185 83 59 36 55 39 98 105 78 104 94 76 130 180 163 144 149 192 255 306
145 180 153 249 328 367 259 272 350 195 107 213 260 154 126 156 165 155 120 108 118 77 -7 -39 -41 -1 114 89 106 50 49 17 17 45 118 130 141 125 141 186 202 243 318 398
249 394 383 333 358 112 251 196 168 174 159 118 114 135 90 67 90 147 156 136 117 53 -44 -7 -40 -9 193 188 182 174 106 170 114 158 239 255 210 262 359 362 368 341 329 362
322 326 364 297 275 348 196 172 121 108 105 88 96 101 76 100 97 132 104 133 151 -26 -23 -35 35 -1 94 139 187 300 391 390 403 379 428 350 291 283 305 329 337 354 382 434
150 199 298 371 238 140 92 124 102 72 62 55 94 101 122 89 84 49 10 90 87 41 52 41 -19 56 228 349 312 307 352 353 387 397 396 408 364 315 320 300 319 350 370 403
250 199 170 131 116 65 50 50 70 50 54 73 116 162 130 131 126 60 26 32 32 92 91 90 10 158 175 257 301 306 238 236 263 262 273 334 369 365 324 352 358 397 417 395
141 176 155 107 81 60 58 76 66 64 57 95 137 135 67 -3 11 70 22 49 47 44 13 15 50 186 263 248 218 204 208 204 211 240 240 331 371 409 405 395 396 442 460 418
157 124 87 74 65 61 95 115 74 132 137 100 88 41 33 -12 28 0 36 -22 35 99 93 37 163 171 229 265 256 250 268 294 270 264 322 365 410 490 553 543 516 449 373 288
63 53 62 111 28 51 69 114 96 121 84 56 23 25 -6 -11 32 9 50 -3 -45 80 119 222 187 234 248 259 292 319 328 332 363 381 410 459 485 440 430 334 280 278 242 221
57 47 65 89 27 9 57 111 115 94 74 72 52 16 37 56 49 58 93 70 89 141 218 272 298 257 257 278 313 326 355 365 406 416 385 339 257 213 233 238 195 205 209 209
Wind_Speed
99 97 97 98 95 78 44 54 55 29 19 39 46 49 59 79 76 59 80 92 100 91 81 77 82 71 77 59 58 63 57 53 65 77 73 51 48 43 45 42 31 30 21 14
98 100 100 100 97 35 47 48 53 26 27 43 56 70 93 94 90 88 74 75 79 95 93 80 70 72 56 46 50 66 54 63 72 82 75 57 53 48 41 43 49 35 25 28
102 102 102 99 92 47 48 44 53 47 40 54 40 37 71 78 61 71 87 92 85 95 99 80 68 67 60 54 48 40 42 63 71 86 69 44 55 52 63 52 46 48 47 43
100 99 99 97 49 49 47 54 62 48 43 56 44 36 59 46 63 42 48 44 90 98 92 88 77 65 59 56 48 51 52 68 78 76 52 53 74 55 61 65 67 46 68 80
107 89 64 61 59 51 57 65 63 52 61 45 48 51 40 43 58 30 39 54 60 87 94 87 86 71 60 77 52 53 52 76 74 89 74 65 61 82 68 67 77 74 62 51
67 70 71 65 62 57 65 66 65 63 60 56 50 60 53 58 54 83 33 39 25 94 108 79 69 63 76 81 59 57 52 58 72 95 75 75 86 70 72 77 75 58 51 66
64 66 66 64 64 69 70 64 59 69 76 56 60 53 46 48 51 61 85 56 29 86 79 64 68 70 81 70 61 51 60 57 54 77 70 103 63 48 55 67 77 51 49 49
66 65 63 60 60 63 71 65 68 72 83 70 60 53 54 49 44 74 88 75 59 69 66 79 71 78 70 56 53 47 43 48 58 59 64 77 81 60 59 62 63 57 56 56
76 74 71 70 71 72 74 79 68 75 81 87 60 56 52 50 46 64 99 84 65 56 73 91 91 86 59 56 50 42 44 45 53 57 70 86 65 69 50 51 75 54 56 64
61 61 60 61 62 64 73 78 77 71 84 80 74 60 60 57 60 59 60 53 50 51 81 95 92 80 57 49 54 47 50 58 67 66 67 75 53 55 54 71 57 55 50 51
69 67 66 63 62 61 60 70 71 85 72 65 74 71 68 62 62 59 49 48 49 38 84 97 89 85 75 63 57 49 50 51 69 66 73 75 51 40 60 54 68 70 62 58
70 73 74 69 66 62 60 63 66 86 70 65 60 73 51 76 63 60 56 43 37 33 68 86 83 80 66 66 65 46 61 54 52 51 72 48 50 56 37 44 53 41 46 35
44 49 70 85 72 65 66 50 52 82 71 66 72 81 91 74 69 65 62 51 41 24 59 71 83 84 78 71 77 65 56 54 56 54 58 75 70 52 58 61 61 57 44 36
38 42 81 86 78 66 64 60 50 87 57 64 78 68 68 62 72 77 52 51 40 34 56 70 68 76 62 82 65 64 64 55 60 62 60 42 56 60 69 77 73 60 42 35
37 92 94 93 74 62 56 58 67 67 60 68 65 59 71 75 50 42 45 39 39 38 59 64 64 62 58 65 71 81 72 69 57 57 53 49 52 54 59 41 56 74 58 47
91 95 97 80 56 62 51 49 75 98 59 47 60 59 53 51 42 38 46 44 41 37 46 73 73 72 64 65 73 67 79 78 61 54 48 50 37 35 33 32 42 45 41 40
88 88 70 52 57 53 61 72 79 83 64 42 46 47 44 51 46 44 41 41 42 40 49 73 73 72 72 83 77 56 55 55 57 53 49 44 42 38 34 35 36 32 30 32
79 58 56 62 51 46 49 35 44 58 52 44 44 44 44 42 42 42 35 38 39 42 60 66 73 75 78 83 79 83 73 65 57 47 37 32 25 30 33 30 29 30 30 27
59 64 61 61 57 47 44 34 39 41 49 49 46 39 39 33 35 38 31 31 42 41 63 68 62 60 68 68 61 65 68 68 67 53 36 29 26 27 29 26 24 23 25 26
65 67 54 52 54 45 36 39 46 43 46 41 44 33 32 25 28 31 35 35 42 58 75 53 64 76 66 50 44 48 46 48 49 36 33 24 26 26 30 30 27 23 22 21
48 47 51 58 41 37 33 39 46 46 49 51 42 37 27 34 26 27 33 41 46 70 69 62 60 61 56 43 29 27 24 18 17 18 24 24 19 20 21 24 23 21 21 22
47 46 43 38 37 34 37 40 43 47 51 42 31 38 28 21 20 21 31 46 48 63 63 60 60 47 41 32 26 21 19 16 16 17 16 17 18 18 16 18 20 21 21 21
40 33 28 31 30 38 45 54 46 42 42 43 32 14 18 22 25 46 53 56 61 52 60 61 58 43 32 29 27 23 21 18 15 15 16 16 18 19 18 19 20 19 21 23
33 29 30 30 33 31 33 37 37 32 28 17 6 8 27 46 6 46 57 47 49 53 59 63 56 48 41 35 30 24 21 19 15 15 15 18 18 19 21 21 20 20 21 22
26 23 24 22 22 17 22 27 30 28 29 26 25 31 16 40 49 51 56 54 50 48 53 43 47 39 36 34 29 23 19 17 17 17 16 15 15 16 19 21 23 25 27 28
22 17 22 20 19 19 22 26 29 30 34 38 39 38 41 45 44 48 50 54 50 53 42 37 27 25 25 22 19 14 10 8 9 9 11 13 17 21 26 29 30 30 29 29
21 18 18 20 20 24 28 29 30 33 36 38 32 28 33 36 41 44 42 49 42 15 14 20 19 15 14 11 6 2 5 9 12 16 20 26 28 30 29 28 28 29 30 32
Wind_Direction
272 269 264 254 247 260 269 269 271 267 199 248 261 243 268 258 264 276 265 262 258 260 268 276 271 264 256 260 252 240 246 259 258 258 264 265 246 255 256 265 281 292 300 302
243 241 239 238 234 222 260 265 268 259 216 231 214 267 251 239 241 250 268 265 255 250 258 267 272 269 255 271 257 247 247 253 256 257 261 272 230 246 251 260 269 276 291 299
243 240 236 230 219 245 245 264 265 262 238 264 226 224 218 223 272 226 246 261 257 250 251 258 265 270 263 254 259 262 255 252 246 249 253 264 250 244 253 258 264 273 279 287
238 233 230 223 246 240 235 252 262 263 255 215 231 241 274 219 221 268 278 253 253 245 249 252 255 261 267 259 256 258 258 253 247 254 250 259 249 253 253 255 261 266 267 259
261 267 261 255 249 235 235 250 253 260 264 255 233 223 233 219 275 219 273 217 244 243 244 244 251 265 271 262 254 252 264 254 252 249 252 254 255 251 256 256 256 265 269 279
268 265 262 254 244 230 243 249 255 259 259 249 236 219 222 264 272 251 218 237 260 245 240 254 259 263 270 241 254 249 255 261 249 245 250 257 254 249 252 251 255 267 275 267
267 264 260 253 242 231 240 248 248 249 254 243 244 249 241 232 258 269 248 272 247 246 247 262 266 263 270 266 255 254 248 261 257 250 250 243 256 253 256 257 257 269 271 276
264 261 254 246 238 231 239 249 243 244 249 252 253 249 250 250 249 220 254 228 282 254 245 243 251 249 270 255 254 250 249 260 248 248 245 251 254 254 256 262 268 264 270 275
262 258 251 244 239 237 239 241 249 241 246 242 253 249 247 251 251 262 242 255 270 261 242 239 237 238 262 251 257 254 252 251 252 254 249 247 258 254 265 269 261 270 275 277
252 246 237 228 224 228 238 244 235 247 243 246 236 254 248 252 256 263 263 265 269 259 237 231 230 236 250 267 243 244 246 246 246 249 254 256 272 260 262 256 268 271 279 283
250 242 236 227 220 215 222 236 235 235 244 248 236 240 250 253 252 256 266 260 264 264 233 229 229 233 239 249 255 247 247 245 247 252 251 247 258 265 255 273 271 267 273 283
249 242 233 223 217 206 204 238 232 230 247 243 241 237 239 241 250 253 258 262 271 264 235 232 233 233 242 244 250 257 249 252 257 259 254 267 274 270 286 282 282 286 284 293
216 226 232 227 216 197 190 212 222 222 236 237 235 232 233 250 249 252 255 264 266 261 241 242 240 242 245 246 246 252 256 255 260 264 266 259 265 280 271 271 274 278 294 297
205 198 225 221 212 192 189 221 214 216 230 231 228 235 232 240 244 240 256 261 277 268 244 241 246 245 250 246 256 255 255 258 258 263 265 275 269 265 260 260 265 271 288 301
176 209 207 208 205 188 195 219 219 215 220 226 222 227 228 221 237 251 253 268 272 270 246 244 245 250 254 254 255 251 254 251 255 263 268 272 271 268 264 274 265 254 277 290
191 190 191 198 180 171 194 219 217 204 225 223 215 224 224 229 245 260 262 269 274 278 259 245 245 246 250 254 250 256 249 249 260 265 274 273 281 288 293 292 285 288 292 295
175 176 184 157 154 175 201 201 196 200 212 221 215 222 235 242 252 259 264 269 272 276 264 244 240 248 249 247 249 256 258 257 263 273 275 277 280 285 298 302 307 313 317 314
160 155 141 135 152 181 195 191 159 199 210 222 224 231 236 247 251 258 264 271 270 273 250 241 241 247 249 248 250 245 248 254 263 277 287 289 292 299 306 310 313 315 320 328
118 124 132 155 173 179 182 156 177 200 214 215 224 227 238 255 258 262 267 269 271 270 241 237 237 257 236 245 249 247 248 253 255 268 276 285 296 304 312 320 324 325 328 330
143 152 156 166 170 154 165 188 201 216 227 233 232 244 252 265 275 273 272 272 269 247 230 234 240 243 244 256 264 262 264 265 266 260 263 275 289 303 312 315 321 327 330 338
157 162 156 155 168 179 193 199 205 215 222 231 240 251 262 269 278 280 287 273 256 237 232 232 238 243 244 254 266 272 268 281 287 284 278 284 296 308 320 326 332 338 342 345
157 149 164 179 189 197 201 204 211 217 221 233 245 247 267 290 302 298 281 255 239 229 220 228 234 240 244 248 250 260 275 291 303 307 309 309 317 324 336 342 346 352 2 10
166 174 186 197 207 198 193 188 205 218 225 229 242 266 293 304 302 244 226 232 231 233 225 232 235 238 245 250 252 257 277 293 310 322 330 334 334 335 340 348 353 6 6 9
177 186 189 201 201 208 211 212 215 229 244 258 308 335 269 186 111 241 211 229 229 230 236 237 239 243 247 252 254 259 270 281 300 316 330 335 339 344 348 351 357 7 10 17
193 203 202 208 213 231 230 230 228 249 253 238 256 267 328 171 203 193 211 205 226 236 235 241 239 249 252 255 261 266 277 289 300 312 330 347 358 6 10 15 28 43 49 49
218 243 221 236 245 260 264 263 257 254 234 224 217 194 195 198 217 197 204 201 212 229 237 238 247 252 251 252 255 262 269 300 338 3 23 36 43 53 57 58 54 48 43 36
247 260 268 253 271 289 268 244 235 243 235 221 232 249 244 246 235 232 229 219 228 284 272 251 245 241 227 220 213 163 94 80 71 72 69 69 68 68 65 56 43 36 28 22